CW7448 Weather Reports


Display with metric or nautical units.
time (UTC)temp
F
wind
direction
speed
MPH
gust
MPH
rain 1hr
in
rain 24hr
in
rain mn
in
humidity
%
barometer
mb
20170924013504 63 231 0.0 0.0 0.00 0.00 0.00 14 1015.9
20170924011503 64 231 0.0 0.0 0.00 0.00 0.00 14 1015.8
20170924010503 64 231 0.0 0.0 0.00 0.00 0.00 14 1015.8
20170924005502 65 231 0.0 0.0 0.00 0.00 0.00 14 1015.8
20170924000501 66 231 0.0 0.0 0.00 0.00 0.00 20 1015.6
20170923235501 67 231 0.0 0.0 0.00 0.00 0.00 21 1015.5
20170923234500 67 231 0.0 0.0 0.00 0.00 0.00 24 1015.2
20170923231500 70 231 0.0 0.0 0.00 0.00 0.00 33 1015.1
20170923230500 71 231 0.0 0.0 0.00 0.00 0.00 37 1015.0
20170923223458 74 231 0.0 0.0 0.00 0.00 0.00 48 1014.9
20170923222458 75 231 0.0 0.0 0.00 0.00 0.00 51 1014.9
20170923220458 77 231 0.0 0.0 0.00 0.00 0.00 56 1014.7
20170923212456 81 231 0.0 2.0 0.00 0.00 0.00 53 1014.7
20170923211456 82 200 0.0 10.0 0.00 0.00 0.00 53 1014.7
20170923210456 83 47 0.0 12.0 0.00 0.00 0.00 52 1014.6
20170923204455 84 277 0.0 13.0 0.00 0.00 0.00 50 1014.4
20170923201454 85 51 7.0 20.0 0.00 0.00 0.00 50 1014.5
20170923200454 86 327 2.0 13.0 0.00 0.00 0.00 48 1014.6
20170923195454 85 9 0.0 10.0 0.00 0.00 0.00 49 1014.7
20170923194453 85 127 0.0 8.0 0.00 0.00 0.00 49 1014.8
20170923193453 84 310 2.0 17.0 0.00 0.00 0.00 49 1014.7
20170923190453 83 286 0.0 7.0 0.00 0.00 0.00 48 1015.0
20170923185452 83 253 0.0 5.0 0.00 0.00 0.00 49 1015.0
20170923184452 83 247 0.0 7.0 0.00 0.00 0.00 48 1015.0
20170923181451 83 64 1.0 18.0 0.00 0.00 0.00 47 1015.2
20170923180451 83 259 0.0 9.0 0.00 0.00 0.00 46 1015.1
20170923174450 82 202 2.0 5.0 0.00 0.00 0.00 47 1015.4
20170923173449 82 250 5.0 5.0 0.00 0.00 0.00 46 1015.4
20170923172449 81 213 0.0 17.0 0.00 0.00 0.00 46 1015.3
20170923171449 81 30 4.0 16.0 0.00 0.00 0.00 46 1015.2
20170923170449 80 238 9.0 16.0 0.00 0.00 0.00 46 1015.3
20170923165448 79 67 0.0 11.0 0.00 0.00 0.00 46 1015.5
20170923163448 79 315 5.0 6.0 0.00 0.00 0.00 45 1015.6
20170923162447 78 196 1.0 9.0 0.00 0.00 0.00 45 1015.6
20170923151445 73 27 0.0 19.0 0.00 0.00 0.00 48 1016.3
20170923150445 73 120 0.0 16.0 0.00 0.00 0.00 48 1016.3
20170923145445 73 88 0.0 25.0 0.00 0.00 0.00 48 1016.4
20170923144445 73 11 7.0 23.0 0.00 0.00 0.00 47 1016.3
20170923142444 72 178 0.0 27.0 0.00 0.00 0.00 47 1016.2
20170923140443 70 242 0.0 8.0 0.00 0.00 0.00 48 1016.2
20170923135443 69 304 3.0 12.0 0.00 0.00 0.00 48 1016.0
20170923133443 68 36 0.0 11.0 0.00 0.00 0.00 48 1016.2
20170923132442 69 20 0.0 13.0 0.00 0.00 0.00 48 1016.2
20170923131442 69 22 4.0 11.0 0.00 0.00 0.00 46 1016.2
20170923130442 69 44 1.0 15.0 0.00 0.00 0.00 46 1015.8
20170923125441 68 166 3.0 11.0 0.00 0.00 0.00 46 1015.6
20170923123441 67 344 0.0 12.0 0.00 0.00 0.00 47 1015.0
20170923121440 66 330 1.0 9.0 0.00 0.00 0.00 47 1014.9
20170923114439 65 9 1.0 12.0 0.00 0.00 0.00 44 1014.7
20170923113509 65 57 0.0 5.0 0.00 0.00 0.00 44 1014.8
20170923111438 63 246 0.0 10.0 0.00 0.00 0.00 45 1014.8
20170923110438 63 13 0.0 8.0 0.00 0.00 0.00 44 1014.7
20170923104437 63 40 0.0 5.0 0.00 0.00 0.00 44 1014.7
20170923101437 64 71 0.0 11.0 0.00 0.00 0.00 44 1014.8
20170923095436 64 261 12.0 15.0 0.00 0.00 0.00 45 1014.9
20170923090505 64 151 0.0 11.0 0.00 0.00 0.00 46 1014.3
20170923074502 65 236 6.0 19.0 0.00 0.00 0.00 43 1014.2
20170923072502 64 14 7.0 11.0 0.00 0.00 0.00 43 1013.9
20170923071501 64 202 6.0 16.0 0.00 0.00 0.00 44 1013.9
20170923070431 64 26 2.0 27.0 0.00 0.00 0.00 44 1013.8
20170923065501 64 153 0.0 19.0 0.00 0.00 0.00 42 1013.9
20170923062430 64 222 0.0 11.0 0.00 0.00 0.00 38 1014.0
20170923060459 64 98 0.0 9.0 0.00 0.00 0.00 37 1014.1
20170923053458 65 106 3.0 12.0 0.00 0.00 0.00 37 1014.2
20170923045457 65 273 4.0 16.0 0.00 0.00 0.00 38 1014.2
20170923043457 64 245 0.0 13.0 0.00 0.00 0.00 39 1014.0
20170923042456 64 281 4.0 10.0 0.00 0.00 0.00 39 1014.0
20170923034455 64 209 1.0 18.0 0.00 0.00 0.00 33 1014.2
20170923033455 64 49 3.0 17.0 0.00 0.00 0.00 30 1014.3